Total_Precipitation_Accumulation
0.24 0.26 0.29 0.28 0.27 0.27 0.31 0.42 0.57 0.41 0.11 0.03 0.05 0.08 0.12 0.15 0.21 0.27 0.27 0.32 0.37 0.41 0.49 0.55 0.57 0.58 0.71 1.02 1.72 2.56 3.17 3.24 2.89 2.35 2.02 2.08 2.28 2.64
0.27 0.31 0.33 0.33 0.32 0.31 0.33 0.35 0.46 0.57 0.34 0.07 0.06 0.09 0.13 0.16 0.21 0.25 0.24 0.30 0.34 0.38 0.39 0.42 0.48 0.55 0.62 0.74 1.01 1.66 2.40 2.99 3.18 3.01 2.67 2.49 2.56 2.82
0.32 0.36 0.35 0.36 0.40 0.40 0.39 0.40 0.39 0.47 0.46 0.12 0.05 0.08 0.16 0.22 0.21 0.22 0.23 0.24 0.27 0.34 0.37 0.36 0.38 0.44 0.51 0.59 0.71 1.04 1.68 2.32 2.88 3.20 3.26 3.07 2.94 2.88
0.43 0.43 0.42 0.42 0.44 0.45 0.49 0.48 0.43 0.41 0.47 0.29 0.09 0.08 0.14 0.23 0.26 0.25 0.24 0.22 0.23 0.28 0.33 0.36 0.37 0.40 0.44 0.51 0.58 0.69 1.05 1.59 2.17 2.68 3.01 3.01 2.92 3.04
0.49 0.53 0.53 0.53 0.53 0.51 0.55 0.56 0.52 0.45 0.45 0.42 0.21 0.12 0.16 0.23 0.29 0.29 0.28 0.27 0.26 0.29 0.30 0.35 0.40 0.43 0.43 0.45 0.49 0.56 0.66 0.92 1.34 1.97 2.57 2.81 2.78 2.77
0.53 0.57 0.61 0.66 0.67 0.68 0.72 0.70 0.66 0.61 0.52 0.46 0.34 0.24 0.24 0.27 0.33 0.34 0.31 0.30 0.34 0.34 0.33 0.33 0.38 0.42 0.44 0.41 0.37 0.40 0.52 0.77 1.07 1.44 1.97 2.39 2.51 2.51
0.55 0.58 0.62 0.70 0.84 0.98 1.07 0.99 0.83 0.77 0.68 0.59 0.47 0.36 0.33 0.36 0.44 0.42 0.41 0.34 0.38 0.44 0.41 0.34 0.32 0.31 0.35 0.42 0.45 0.45 0.46 0.55 0.74 1.05 1.46 1.92 2.24 2.30
0.50 0.48 0.49 0.55 0.64 0.75 0.89 0.88 0.81 0.89 0.91 0.79 0.65 0.56 0.45 0.43 0.50 0.57 0.58 0.54 0.47 0.45 0.46 0.44 0.40 0.39 0.37 0.36 0.46 0.47 0.50 0.54 0.60 0.77 1.08 1.45 1.84 2.15
0.35 0.36 0.36 0.40 0.46 0.46 0.55 0.56 0.60 0.67 0.79 0.87 0.87 0.73 0.61 0.54 0.61 0.68 0.71 0.69 0.53 0.51 0.56 0.62 0.60 0.53 0.49 0.49 0.54 0.49 0.50 0.54 0.60 0.68 0.80 1.07 1.43 1.81
0.29 0.33 0.33 0.35 0.40 0.49 0.54 0.48 0.43 0.45 0.59 0.75 0.92 0.88 0.78 0.76 0.86 0.95 0.96 0.92 0.80 0.72 0.69 0.79 0.80 0.74 0.68 0.63 0.60 0.52 0.49 0.47 0.51 0.61 0.73 0.88 1.10 1.42
0.25 0.32 0.35 0.32 0.37 0.46 0.51 0.46 0.36 0.34 0.38 0.54 0.70 0.79 0.81 0.87 1.00 1.14 1.13 1.10 1.12 1.12 0.99 0.93 0.93 0.88 0.86 0.84 0.75 0.65 0.55 0.48 0.45 0.50 0.62 0.78 0.97 1.20
0.19 0.27 0.40 0.41 0.37 0.38 0.42 0.42 0.39 0.34 0.28 0.27 0.31 0.41 0.53 0.65 0.83 1.05 1.15 1.15 1.17 1.28 1.24 1.09 1.09 1.02 1.05 0.98 0.81 0.67 0.58 0.56 0.50 0.46 0.51 0.63 0.81 1.01
0.22 0.27 0.34 0.37 0.32 0.31 0.33 0.37 0.41 0.32 0.25 0.22 0.21 0.23 0.33 0.48 0.65 0.90 1.09 1.16 1.16 1.20 1.18 1.12 1.18 1.11 1.02 1.00 0.87 0.73 0.62 0.54 0.46 0.45 0.47 0.55 0.69 0.81
0.27 0.23 0.28 0.29 0.24 0.24 0.24 0.27 0.25 0.23 0.25 0.21 0.18 0.18 0.24 0.37 0.50 0.67 0.90 1.01 1.07 1.09 1.04 1.04 1.10 1.01 0.91 0.84 0.84 0.83 0.73 0.64 0.52 0.42 0.39 0.52 0.64 0.76
0.31 0.35 0.27 0.19 0.16 0.15 0.16 0.18 0.19 0.21 0.27 0.23 0.16 0.14 0.19 0.28 0.36 0.46 0.63 0.81 0.89 0.93 0.97 0.97 1.05 1.02 0.94 0.83 0.74 0.74 0.78 0.81 0.68 0.54 0.46 0.42 0.46 0.57
0.26 0.29 0.27 0.17 0.13 0.10 0.09 0.11 0.15 0.20 0.22 0.20 0.14 0.11 0.13 0.19 0.28 0.38 0.50 0.66 0.79 0.86 0.92 0.98 1.10 1.21 1.13 0.90 0.78 0.75 0.71 0.80 0.78 0.64 0.53 0.46 0.44 0.45
0.31 0.27 0.25 0.20 0.17 0.14 0.10 0.08 0.10 0.14 0.18 0.17 0.14 0.14 0.14 0.17 0.23 0.30 0.43 0.55 0.69 0.78 0.88 1.02 1.14 1.24 1.36 1.28 1.09 0.91 0.76 0.69 0.70 0.67 0.59 0.54 0.54 0.52
0.31 0.28 0.21 0.16 0.13 0.12 0.10 0.09 0.08 0.10 0.11 0.13 0.14 0.14 0.15 0.17 0.20 0.25 0.34 0.47 0.59 0.67 0.76 0.93 1.08 1.18 1.39 1.61 1.48 1.11 0.86 0.76 0.75 0.73 0.64 0.57 0.60 0.63
0.25 0.19 0.14 0.12 0.12 0.10 0.09 0.08 0.07 0.06 0.08 0.10 0.12 0.12 0.13 0.15 0.18 0.23 0.29 0.38 0.49 0.58 0.69 0.83 0.97 1.11 1.20 1.40 1.62 1.37 1.04 0.87 0.82 0.84 0.79 0.62 0.56 0.60
0.18 0.14 0.12 0.11 0.10 0.10 0.09 0.08 0.08 0.07 0.09 0.09 0.10 0.10 0.12 0.14 0.17 0.20 0.25 0.35 0.43 0.51 0.59 0.72 0.91 1.07 1.13 1.09 1.20 1.35 1.33 1.05 0.87 0.87 0.90 0.81 0.73 0.78
0.12 0.12 0.11 0.12 0.11 0.10 0.09 0.08 0.08 0.08 0.07 0.07 0.08 0.09 0.11 0.13 0.16 0.17 0.21 0.29 0.38 0.46 0.54 0.62 0.77 0.94 1.12 1.13 1.10 1.14 1.28 1.35 1.11 0.90 0.87 0.87 0.90 0.92
0.11 0.12 0.11 0.11 0.11 0.11 0.10 0.09 0.09 0.08 0.07 0.07 0.07 0.08 0.09 0.12 0.15 0.16 0.20 0.26 0.33 0.41 0.49 0.55 0.63 0.80 1.07 1.24 1.24 1.16 1.17 1.33 1.45 1.28 1.03 0.85 0.81 0.84
0.14 0.14 0.13 0.12 0.12 0.11 0.11 0.10 0.09 0.07 0.06 0.07 0.07 0.07 0.08 0.10 0.12 0.15 0.18 0.23 0.30 0.36 0.43 0.51 0.59 0.74 1.02 1.21 1.29 1.24 1.17 1.17 1.23 1.29 1.37 1.18 0.87 0.74